Date,TemperatureHighF,TemperatureAvgF,TemperatureLowF,DewpointHighF,DewpointAvgF,DewpointLowF,HumidityHigh,HumidityAvg,HumidityLow,PressureMaxIn,PressureMinIn,WindSpeedMaxMPH,WindSpeedAvgMPH,GustSpeedMaxMPH,PrecipitationSumIn
2013-6-1,56.5,49.1,44.6,43.2,42.3,40.4,90,78,59,30.18,30.12,5,2,13,0.00
2013-6-2,59.0,50.7,44.2,44.0,42.0,39.3,93,74,49,30.19,30.02,8,2,14,0.00
2013-6-3,59.2,52.9,46.6,40.8,37.3,33.3,74,56,38,30.02,29.68,11,2,18,0.00
2013-6-4,56.7,49.7,42.8,46.5,41.4,35.7,87,74,50,29.81,29.63,6,1,8,0.00
2013-6-5,59.2,50.2,37.0,42.9,38.0,-11.5,93,66,10,29.93,29.81,8,2,14,0.00
2013-6-6,68.4,55.8,35.4,37.1,33.1,25.6,84,47,21,29.91,29.65,11,3,24,0.00
2013-6-7,71.1,56.8,41.5,41.7,37.7,34.0,78,51,32,29.89,29.67,9,2,17,0.00
2013-6-8,72.0,59.3,44.8,44.7,40.9,37.3,79,53,34,30.07,29.89,8,2,11,0.00
2013-6-9,73.6,62.7,45.0,46.6,42.2,38.5,82,50,32,30.16,30.07,8,2,11,0.00
2013-6-10,70.3,60.8,44.6,46.3,42.5,38.5,82,53,36,30.21,30.07,7,2,11,0.00
2013-6-11,72.9,61.5,45.0,47.1,42.3,38.2,85,53,29,30.11,29.95,8,2,14,0.00
2013-6-12,76.1,59.4,45.1,46.1,42.3,38.0,80,56,26,29.97,29.90,7,2,11,0.00
2013-6-13,62.2,53.3,45.3,45.6,42.8,38.9,87,68,45,30.15,29.95,9,2,13,0.00
2013-6-14,68.5,55.4,41.4,48.4,44.5,38.8,92,69,44,30.23,30.15,8,2,10,0.00
2013-6-15,67.3,54.5,43.5,49.3,45.7,40.5,92,74,50,30.30,30.19,5,1,9,0.00
2013-6-16,79.2,61.5,44.6,52.0,46.3,40.9,89,61,31,30.21,30.08,7,2,10,0.00
2013-6-17,81.0,65.3,48.9,51.4,47.2,43.1,83,55,34,30.08,29.81,5,1,9,0.00
2013-6-18,74.5,64.5,50.9,52.8,48.4,40.8,84,57,43,29.89,29.75,11,2,21,0.00
2013-6-19,70.2,60.9,50.0,49.8,45.3,41.7,84,58,39,29.97,29.80,15,3,21,0.00
2013-6-20,58.5,53.5,46.9,49.3,45.9,41.6,84,75,68,30.01,29.95,8,2,14,0.00
2013-6-21,56.7,51.5,46.2,43.5,42.3,40.9,83,71,59,30.07,30.01,8,2,11,0.00
2013-6-22,64.0,54.7,43.2,48.3,44.2,39.4,89,69,51,30.03,29.73,7,2,12,0.00
2013-6-23,70.3,58.7,50.0,53.0,47.6,43.3,92,69,42,29.74,29.60,7,1,11,0.00
2013-6-24,69.1,59.2,50.7,52.2,48.4,44.8,86,68,53,29.64,29.59,6,1,11,0.00
2013-6-25,74.1,60.9,45.7,55.9,48.9,39.9,85,66,49,30.14,29.31,4,1,7,0.70
2013-6-26,82.6,62.8,48.6,57.4,50.4,44.8,88,67,30,29.85,29.58,9,1,14,0.00
2013-6-27,65.1,57.6,52.5,54.4,51.0,47.7,90,79,67,30.06,29.85,8,2,11,0.00
2013-6-28,58.3,54.3,50.0,52.1,49.2,46.5,90,83,77,30.16,30.06,5,1,11,0.00
2013-6-29,68.7,59.1,52.9,54.2,50.1,46.7,86,73,58,30.12,29.97,7,1,12,0.00
2013-6-30,61.7,54.8,51.1,49.9,47.2,45.3,90,76,61,30.03,29.82,8,1,13,0.00